Location: Shades State Park
(39.9310°N, 87.0690°W)
Time: 03:39:35
(UTC-05:00)

ISS - Visible Passes

Search period start: 01 February 2015 00:00
Search period end: 11 February 2015 00:00
Orbit: 400 x 408 km, 51.6° (Epoch: 01 February)

Date Brightness Start Highest point End Pass type
(mag) Time Alt. Az. Time Alt. Az. Time Alt. Az.
02 Feb -0.5 20:12:52 10° SSW 20:13:11 12° SSW 20:13:11 12° SSW visible
03 Feb -1.5 19:21:25 10° S 19:23:34 17° SE 19:23:34 17° SE visible
04 Feb -2.4 20:04:09 10° SW 20:06:30 44° SW 20:06:30 44° SW visible
05 Feb -2.8 19:11:58 10° SSW 19:15:03 42° SE 19:16:38 23° E visible
05 Feb 0.1 20:48:50 10° W 20:49:19 13° W 20:49:19 13° W visible
06 Feb -2.4 19:55:56 10° WSW 19:59:02 40° NNW 19:59:20 39° NNW visible
07 Feb -3.2 19:03:15 10° WSW 19:06:30 75° NW 19:09:15 14° NE visible
07 Feb -0.2 20:41:14 10° WNW 20:41:54 13° NW 20:41:54 13° NW visible
08 Feb -1.4 19:48:01 10° WNW 19:50:41 22° NNW 19:51:43 19° N visible
09 Feb -2.0 18:54:58 10° W 18:57:59 34° NNW 19:01:01 10° NE visible
09 Feb -0.2 20:33:45 10° NW 20:34:05 11° NNW 20:34:05 11° NNW visible
10 Feb -0.9 19:40:20 10° NW 19:42:21 15° NNW 19:43:44 12° NNE visible
